www.pogodaiklimat.ru

Погода и климат >> Архив погоды >> Черногория >> Подгорица-Град


ПОГОДА в Подгорица-Граде

  • Прогноз погоды в Подгорица-Граде
  • Монитор погоды в Подгорица-Граде

АРХИВ ПОГОДЫ в Подгорица-Граде

Время (UTC), дата Ветер
(напр.,м/с)
 
Видим.   Явления Облачность Т
(С)
Тd
(С)
f
(%)
Тe
(С)
Тes
(С)
Комфортность P
(гПа)
Po
(гПа)
Тmin
(С)
Tmax
(С)
R
(мм)
R24
(мм)
S
(см)
19 10.08 В 2 20 км ясно +31.3 +16.6 41 +34 +34 душно 1014.1 1008.4
20 10.08 З 1 20 км ясно +29.0 +20.1 59 +35 +35 очень
душно
1014.4 1008.7
21 10.08 Ю 1 20 км ясно +27.9 +19.0 58 +33 +33 очень
душно
1014.5 1008.8
00 11.08 СВ 2 20 км ясно +26.8 +16.8 54 +30 +30 душно 1014.4 1008.6
03 11.08 СЗ 1 20 км ясно +25.1 +16.2 58 +28 +28 жарко 1014.2 1008.4
04 11.08 З 1 20 км ясно +25.2 +16.4 58 +29 +29 душно 1014.5 1008.7
05 11.08 З 1 20 км ясно +25.8 +16.6 57 +29 +31 душно 1014.8 1009.0
06 11.08 СЗ 1 20 км ясно +29.2 +16.5 46 +33 +37 очень
душно
1015.1 1009.4 +24.6
07 11.08 С 1 20 км ясно +31.0 +17.0 43 +35 +43 очень
душно
1015.1 1009.4
08 11.08 ЮЗ 1 20 км ясно +32.5 +16.6 39 +36 +49 очень
душно
1015.0 1009.4
09 11.08 З 1 20 км ясно +34.7 +17.7 37 +39 +56 опасность
солнечного
удара
1015.0 1009.4
10 11.08 В 1 20 км ясно +35.9 +17.1 33 +39 +59 опасность
солнечного
удара
1014.6 1009.0
11 11.08 Ю 2 20 км ясно +36.4 +18.1 34 +40 +57 опасность
солнечного
удара
1014.1 1008.5
12 11.08 З 2 20 км ясно +37.8 +20.3 36 +44 +59 опасность
перегрева
1013.5 1007.9
13 11.08 З 2 20 км ясно +38.7 +17.6 29 +42 +54 опасность
перегрева
1012.9 1007.4
14 11.08 З 2 20 км ясно +38.8 +17.7 29 +42 +51 опасность
перегрева
1012.4 1006.9
15 11.08 З 1 20 км ясно +29.3 +17.2 48 +33 +39 душно 1012.1 1006.6
16 11.08 ЮЗ 2 20 км 1/1 1000 м
[Cu hum]
+39.4 +16.4 26 +41 +43 опасность
перегрева
1011.9 1006.4
17 11.08 З 2 20 км 1/1 1000 м
[Cu hum]
+37.4 +17.1 30 +40 +40 очень
душно
1012.0 1006.4
18 11.08 З 1 20 км ясно +34.1 +19.8 43 +40 +40 очень
душно
1012.1 1006.5 +39.6
19 11.08 З 1 20 км ясно +32.3 +22.0 55 +41 +41 опасность
перегрева
1012.6 1007.0
20 11.08 С 1 20 км ясно +31.3 +19.5 50 +37 +37 очень
душно
1013.1 1007.4
21 11.08 СЗ 2 20 км ясно +30.6 +19.7 52 +37 +37 очень
душно
1013.2 1013.2
00 12.08 З 1 20 км ясно +28.3 +19.1 57 +34 +34 очень
душно
1013.1 1007.4
03 12.08 СВ 1 20 км ясно +27.6 +17.8 55 +32 +32 очень
душно
1012.7 1007.0
04 12.08 СЗ 1 20 км ясно +26.3 +18.3 61 +31 +31 душно 1012.8 1007.0
05 12.08 СЗ 1 20 км ясно +27.0 +18.9 61 +32 +33 очень
душно
1013.0 1007.2
06 12.08 С 2 20 км ясно +30.8 +18.2 47 +35 +39 очень
душно
1013.2 1007.5 +26.0
07 12.08 С 2 20 км ясно +31.9 +18.7 46 +37 +44 очень
душно
1013.1 1007.4
08 12.08 С 1 20 км ясно +34.0 +18.3 39 +38 +51 опасность
солнечного
удара
1013.0 1007.4
09 12.08 СВ 1 20 км ясно +35.5 +18.7 37 +40 +57 опасность
солнечного
удара
1013.0 1007.3
10 12.08 ЮЗ 1 20 км ясно +37.0 +19.4 36 +42 +62 опасность
перегрева
1012.5 1006.9
11 12.08 ЮЗ 2 20 км ясно +37.6 +17.8 31 +41 +58 опасность
перегрева
1011.8 1006.3
12 12.08 Ю 2 20 км ясно +38.5 +18.2 31 +42 +58 опасность
перегрева
1011.1 1005.6
13 12.08 Ю 2 20 км ясно +38.5 +16.5 28 +41 +54 опасность
перегрева
1010.6 1005.1
14 12.08 Ю 2 20 км ясно +38.9 +15.5 25 +40 +49 очень
душно
1010.0 1004.5
15 12.08 ЮЗ 2 20 км ясно +39.0 +15.7 25 +40 +45 очень
душно
1009.5 1004.0
16 12.08 З 2 20 км ясно +39.5 +15.3 24 +41 +43 опасность
перегрева
1009.1 1003.6
17 12.08 С 1 20 км ясно +38.4 +15.6 26 +40 +40 очень
душно
1008.8 1003.3
18 12.08 З 1 20 км ясно +34.4 +18.0 38 +38 +38 очень
душно
1009.0 1003.4 +39.7
19 12.08 В 2 20 км ясно +33.5 +18.4 41 +38 +38 очень
душно
1009.6 1004.0
20 12.08 ЮЗ 1 20 км ясно +31.2 +18.9 48 +36 +36 очень
душно
1010.2 1004.5
21 12.08 С 1 20 км ясно +29.5 +19.9 56 +36 +36 очень
душно
1010.4 1004.7
00 13.08 З 1 20 км ясно +29.7 +17.1 47 +34 +34 очень
душно
1010.6 1004.9
03 13.08 С 1 20 км ясно +27.6 +15.8 49 +31 +31 душно 1010.1 1004.4
04 13.08 С 1 20 км ясно +27.6 +15.8 49 +31 +31 душно 1010.3 1004.6
05 13.08 С 2 20 км ясно +28.5 +15.3 45 +31 +32 душно 1010.5 1004.8
06 13.08 С 1 20 км ясно +30.6 +16.2 42 +34 +38 очень
душно
1010.5 1004.8 +27.2
07 13.08 С 2 20 км ясно +30.9 +17.9 46 +35 +42 очень
душно
1010.6 1004.9
08 13.08 Ю 1 20 км ясно +33.5 +18.3 41 +38 +51 опасность
солнечного
удара
1010.5 1004.9
09 13.08 ЮЗ 1 20 км 1/1 1000 м
[Cu med, cong]
+35.2 +18.5 37 +39 +55 опасность
солнечного
удара
1010.3 1004.7
10 13.08 В 2 20 км 1/1 1000 м
[Cu med, cong]
+36.2 +17.4 33 +39 +54 опасность
солнечного
удара
1009.9 1004.3
11 13.08 З 2 20 км 3/3 1000 м
[Cu med, cong]
+37.0 +17.1 31 +40 +52 опасность
солнечного
удара
1009.3 1003.8
12 13.08 Ю 3 20 км 3/3 1000 м
[Cu med, cong]
+36.9 +19.2 36 +42 +51 опасность
перегрева
1009.0 1003.5
13 13.08 Ю 2 20 км 3/3 1000 м
[Cu med, cong]
+38.2 +18.2 31 +42 +51 опасность
перегрева
1008.1 1002.6
14 13.08 Ю 3 20 км 3/3 1000 м
[Cu med, cong]
+38.4 +17.9 30 +42 +47 опасность
перегрева
1007.6 1002.1
15 13.08 ЮЗ 2 20 км 3/3 1000 м
[Cu med, cong]
+38.2 +18.0 31 +42 +45 опасность
перегрева
1007.2 1001.7
16 13.08 Ю 3 20 км 3/3 1000 м
[Cu med, cong]
+37.7 +18.0 32 +41 +42 опасность
перегрева
1007.2 1001.7
17 13.08 ЮЗ 2 20 км 3/3 1000 м
[Cu med, cong]
+37.1 +19.3 35 +42 +42 опасность
перегрева
1007.1 1001.6
18 13.08 ЮЗ 1 20 км ясно +34.6 +19.0 40 +40 +40 очень
душно
1007.2 1001.6 +40.1
19 13.08 С 1 20 км ясно +32.4 +20.2 49 +39 +39 очень
душно
1007.9 1002.3
20 13.08 З 1 20 км 4/4 1000 м
[Cu med, cong]
+30.8 +19.5 51 +37 +37 очень
душно
1008.7 1003.0
21 13.08 Ю 1 20 км 4/4 1000 м
[Cu med, cong]
+30.2 +20.0 54 +36 +36 очень
душно
1008.7 1003.0
00 14.08 З 1 20 км 4/4 1000 м
[Cu med, cong]
+27.3 +18.8 60 +32 +32 очень
душно
1008.2 1002.5
03 14.08 З 1 20 км ясно +25.0 +18.4 67 +30 +30 душно 1007.9 1002.1
04 14.08 штиль 0 20 км ясно +24.6 +18.0 67 +29 +29 душно 1008.1 1002.3
05 14.08 СЗ 1 20 км ясно +25.3 +19.0 68 +30 +31 душно 1008.4 1002.7
06 14.08 СЗ 1 20 км 3/0
[Ci sp]
+29.3 +2.9 18 +27 +31 жарко 1008.6 1008.6 +24.6
07 14.08 З 2 20 км 3/0
[Ci sp]
+30.7 +20.0 53 +37 +44 очень
душно
1008.7 1003.0
08 14.08 Ю 1 20 км 4/0
[Ci]
+31.5 +20.4 52 +38 +50 очень
душно
1008.9 1003.3
09 14.08 Ю 2 20 км 5/0
[Ci]
+32.9 +19.7 46 +39 +52 опасность
солнечного
удара
1008.7 1003.1
10 14.08 Ю 3 20 км 8/3 1000 м
[Cu med, cong Ac cuf Ci]
+33.4 +18.2 41 +38 +44 очень
душно
1008.6 1003.0
11 14.08 Ю 3 8000 м гроза, ливневой дождь 10/10 600 м
[Cb cap]
+32.7 +20.4 48 +39 +45 очень
душно
1008.1 1002.5
13 14.08 СЗ 3
{16}
10 км сильн. гроза, ливневой дождь 10/10 600 м
[Cb cap]
+20.3 +17.9 86 +24 +24 комфорт 1011.4 1005.5
15 14.08 В 3
{11}
18 км дождь {гроза} 10/5 1000 м
[Cu Sc Ac As]
+22.7 +17.1 71 +28 +28 душно 1011.6 1005.8
16 14.08 СЗ 4
{11}
20 км {гроза, дождь} 6/4 1000 м
[Cu Sc Ac cuf]
+25.1 +17.8 64 +29 +30 душно 1010.7 1004.9
17 14.08 С 2 20 км {гроза, дождь} 4/3 1000 м
[Cu Sc Ac cuf]
+25.0 +18.3 66 +29 +30 душно 1010.5 1004.7
18 14.08 Ю 1 20 км {гроза, ливн. осадки} 3/1 1000 м
[Cu med, cong Ac cuf]
+23.8 +17.1 66 +28 +28 душно 1010.9 1005.1 +33.9 17
19 14.08 СВ 2 20 км ясно +24.2 +15.3 58 +27 +27 жарко 1011.3 1005.5
20 14.08 В 3 20 км ясно +23.8 +15.4 59 +27 +27 жарко 1011.6 1005.8
21 14.08 В 3 20 км ясно +24.1 +14.3 54 +27 +27 жарко 1011.9 1006.1
00 15.08 СЗ 2 20 км ясно +23.1 +14.9 60 +27 +27 душно 1012.2 1006.4
03 15.08 С 2 20 км ясно +22.2 +13.2 57 +25 +25 комфорт 1012.5 1006.7
04 15.08 С 2 20 км ясно +21.8 +12.7 56 +24 +24 комфорт 1012.6 1006.8
05 15.08 С 2 20 км ясно +22.4 +12.5 53 +25 +26 комфорт 1012.8 1007.0
06 15.08 С 1 20 км 1/0
[Ac trans]
+23.8 +12.7 50 +26 +29 жарко 1013.2 1007.4 +21.0
07 15.08 С 4
{12}
20 км 4/1 1000 м
[Cu hum Ac trans]
+25.1 +12.0 44 +27 +30 жарко 1013.3 1007.5
08 15.08 СВ 4
{13}
20 км 5/1 1000 м
[Cu hum Ac trans Ci]
+26.3 +12.1 41 +28 +33 жарко 1013.2 1007.4
09 15.08 В 4
{15}
20 км 5/1 1000 м
[Cu hum Ac trans Ci]
+27.3 +12.0 39 +29 +35 жарко 1012.7 1007.0
10 15.08 В 5
{13}
20 км 5/1 1000 м
[Cu med, cong Ac trans Ci sp]
+28.3 +11.5 35 +29 +35 жарко 1012.2 1006.5
11 15.08 В 5
{12}
20 км 4/1 1000 м
[Cu med, cong Ac trans Ci sp]
+28.8 +12.0 35 +30 +36 жарко 1011.8 1006.1
12 15.08 В 4 20 км 3/3 1000 м
[Cu med, cong]
+29.4 +12.4 35 +30 +38 жарко 1011.6 1005.9
13 15.08 В 3 20 км 3/3 1000 м
[Cu med, cong]
+29.9 +12.4 34 +31 +38 жарко 1011.1 1005.4
14 15.08 В 4 20 км 3/3 1000 м
[Cu med, cong]
+30.3 +12.4 33 +31 +35 жарко 1010.9 1005.2
15 15.08 В 3 20 км 3/3 1000 м
[Cu med, cong]
+30.3 +12.5 34 +31 +34 жарко 1010.8 1005.1
16 15.08 В 3 20 км 3/3 1000 м
[Cu med, cong]
+30.1 +12.7 34 +31 +32 жарко 1010.7 1005.0
17 15.08 В 5
{11}
20 км 3/3 1000 м
[Cu med, cong]
+28.2 +12.0 37 +29 +29 жарко 1011.1 1005.4
18 15.08 В 4
{12}
20 км 3/3 1000 м
[Cu med, cong]
+26.8 +12.0 40 +28 +28 жарко 1011.8 1006.1 +30.7
19 15.08 В 3
{11}
20 км 3/3 1000 м
[Cu med, cong]
+26.0 +11.4 40 +27 +27 жарко 1012.9 1007.1
20 15.08 С 4 20 км 4/3 1000 м
[Cb calv Ac trans]
+25.7 +11.1 40 +27 +27 жарко 1013.4 1007.6
21 15.08 С 5 20 км 5/4 1000 м
[Cu Sc Ac trans]
+25.3 +10.9 40 +26 +26 жарко 1013.8 1008.0
00 16.08 С 1 20 км 1/0
[Ac trans]
+22.7 +11.5 49 +25 +25 комфорт 1013.8 1008.0
03 16.08 СЗ 1 20 км 4/0
[Ac trans]
+20.6 +11.8 57 +24 +24 комфорт 1014.1 1008.2
04 16.08 С 1 20 км 5/0
[Ac trans]
+19.7 +12.3 62 +22 +22 комфорт 1014.4 1008.5
05 16.08 З 1 20 км 6/0
[Ac trans]
+20.6 +12.7 61 +24 +25 комфорт 1014.6 1009.0
06 16.08 З 2 20 км 8/0
[Ac trans]
+22.7 +12.7 53 +25 +27 комфорт 1014.6 1009.0 +19.6
07 16.08 З 1 20 км 3/0
[Ac trans]
+24.4 +12.5 47 +26 +33 жарко 1014.8 1009.2
08 16.08 З 2 20 км 3/1 1000 м
[Cu hum Ac trans]
+26.0 +12.5 43 +28 +36 жарко 1014.7 1009.1
09 16.08 С 2 20 км 3/1 1000 м
[Cu hum Ac trans]
+27.5 +11.2 36 +28 +39 жарко 1014.6 1009.0
10 16.08 З 2 20 км 4/4 1000 м
[Cu Sc]
+28.7 +12.4 37 +30 +40 жарко 1014.3 1008.6
11 16.08 В 2 20 км 4/4 1000 м
[Cu Sc]
+29.1 +11.2 33 +30 +40 жарко 1014.0 1008.3
12 16.08 ЮЗ 3 20 км 3/3 1000 м
[Cu med, cong]
+29.7 +13.6 37 +31 +40 жарко 1013.7 1008.0
13 16.08 ЮЗ 2 20 км 1/1 1000 м
[Cu med, cong]
+30.1 +12.5 34 +31 +42 жарко 1013.3 1007.6
14 16.08 Ю 3 20 км 4/1 1000 м
[Cu med, cong Ac trans]
+30.2 +12.8 34 +31 +36 жарко 1013.1 1007.4
15 16.08 Ю 3 20 км 4/1 1000 м
[Cu med, cong Ac trans]
+29.8 +13.5 37 +31 +34 жарко 1013.0 1007.3
16 16.08 Ю 2 20 км 4/1 1000 м
[Cu med, cong Ac trans Ci sp]
+29.2 +15.0 42 +32 +33 душно 1013.0 1007.3
17 16.08 Ю 2 20 км 8/1 1000 м
[Cu med, cong Ac As]
+28.3 +14.7 43 +31 +31 душно 1013.3 1007.6
18 16.08 З 2 20 км 5/1 1000 м
[Cu med, cong Ac As]
+26.0 +15.3 52 +29 +29 душно 1013.8 1008.0 +30.6
19 16.08 З 2 20 км 3/0
[Ac trans]
+24.1 +15.0 57 +27 +27 жарко 1014.5 1008.7
20 16.08 С 2 20 км 1/0
[Ac trans]
+23.5 +13.8 54 +26 +26 жарко 1015.1 1009.3
21 16.08 С 2 20 км ясно +24.5 +10.3 41 +26 +26 жарко 1015.4 1009.6
00 17.08 СЗ 1 20 км ясно +21.4 +11.4 53 +23 +23 комфорт 1015.9 1010.0
03 17.08 ЮЗ 1 20 км ясно +18.9 +10.5 58 +21 +21 комфорт 1016.5 1010.6
04 17.08 СЗ 1 20 км ясно +18.0 +10.9 63 +19 +19 1016.9 1011.0
05 17.08 З 1 20 км ясно +18.8 +10.8 60 +21 +22 комфорт 1017.0 1011.1
06 17.08 С 2 20 км ясно +22.7 +10.0 44 +24 +28 комфорт 1017.3 1011.4 +10.0 173
07 17.08 СЗ 2 20 км ясно +24.6 +10.0 40 +26 +32 жарко 1017.2 1011.4
08 17.08 СЗ 2 20 км ясно +25.9 +10.2 37 +27 +37 жарко 1017.0 1011.2
09 17.08 З 2 20 км ясно +27.6 +10.9 35 +28 +42 жарко 1017.1 1011.3
10 17.08 СЗ 2 20 км 4/3 1000 м
[Cu med, cong Ci fib]
+28.7 +10.8 33 +29 +40 жарко 1016.5 1010.8
11 17.08 З 2 20 км 4/3 1000 м
[Cu med, cong Ci fib]
+29.6 +11.2 32 +30 +41 жарко 1016.1 1010.4
12 17.08 Ю 3 20 км 4/3 1000 м
[Cu med, cong Ci fib]
+29.5 +11.4 33 +30 +39 жарко 1015.7 1010.0
13 17.08 Ю 3 20 км 5/3 1000 м
[Cu med, cong Cs]
+29.8 +10.3 30 +30 +37 жарко 1015.2 1009.5
14 17.08 Ю 3 20 км 5/3 1000 м
[Cu med, cong Ci sp]
+28.9 +10.2 31 +29 +34 жарко 1014.9 1009.2
15 17.08 ЮЗ 3 20 км 5/3 1000 м
[Cu med, cong Ac trans]
+28.3 +9.6 31 +28 +31 жарко 1014.8 1009.1
16 17.08 ЮЗ 3 20 км 5/3 1000 м
[Cu med, cong Ac trans]
+30.0 +13.6 37 +32 +32 жарко 1014.9 1009.2
17 17.08 Ю 2 20 км 5/3 1000 м
[Cu med, cong Ac trans]
+28.6 +16.0 46 +32 +32 душно 1015.0 1009.3
18 17.08 ЮВ 1 20 км 5/3 1000 м
[Cu med, cong Ac trans]
+27.0 +16.0 51 +30 +30 душно 1015.2 1009.4 +31.8
19 17.08 С 1 20 км ясно +25.7 +16.4 56 +29 +29 душно 1015.8 1010.0

 

Местоположение метеостанции Подгорица-Град (Черногория): широта 42.43 долгота 19.28 высота над уровнем моря 50 м.

В архиве по умолчанию представлена погода в Подгорица-Граде за последнюю неделю. Архивные данные за месяц целиком и за предыдущие месяцы, начиная с января 2011 года, Вы можете получить, выбрав интересующий диапазон дат из раскрывающегося списка и нажав кнопку "Ввод!".


*Определитесь, кто Вы:
робот инопланетянин человек

Внимание! Время в таблицах - всемирное. Для получения местного времени необходимо прибавить поправку, которая равна 1 ч.

Смотрите также архив погоды в соседних городах и на ближайших метеорологических станциях:

Погода в Подгорице (Черногория) (7 км)
Погода в Баре (Черногория) (40 км)
Погода в Шкодре (Албания) (42 км)
Погода в Тивате (Черногория) (45 км)
Погода в Никшиче (Черногория) (46 км)
Погода в Дубровник аэропорту (Хорватия) (84 км)
Погода в Дубровнике (Хорватия) (101 км)
Погода в Плевле (Черногория) (102 км)
Погода в Женике (Сербия) (111 км)
Погода в Кукесе (Албания) (115 км)

Пояснения к столбцам:

Ветер - указаны скорость ветра в м/с - средняя за 10 мин, порывы в срок и между сроками (в фигурных скобках) и направление, откуда дует ветер: С - северный, СВ - северо-восточный, В - восточный, ЮВ - юго-восточный, Ю - южный, ЮЗ - юго-западный, З - западный, СЗ - северо-западный.
Видимость - горизонтальная дальность видимости в метрах или километрах. При видимости от 1 до 10 км при отсутствии осадков обычно наблюдается дымка, при ухудшении видимости до 1 км и менее - туман. В сухую погоду видимость может ухудшаться дымом, пылью или мглою.
Явления - указаны атмосферные явления, наблюдавшиеся в срок или в последний час перед сроком; фигурными скобками обозначены явления, наблюдавшиеся между сроками (за 1-3 часа до срока); квадратными скобками обозначены град или гололедные отложения с указанием их диаметра в мм.
Облачность - указаны через наклонную черту общая и нижняя облачность в баллах и высота нижней границы облаков в метрах; квадратными скобками обозначены формы облаков: Ci - перистые, Cs - перисто-слоистые, Cc - перисто-кучевые, Ac - высококучевые, As - высокослоистые, Sc - слоисто-кучевые, Ns - слоисто-дождевые, Cu - кучевые, Cb - кучево-дождевые. Подробнее классификацию облаков см. в Атласе облаков (PDF).
T - Температура воздуха - температура, измеренная на высоте 2 м над землей.
Td - Температура точки росы - температура, при понижении до которой содержащийся в воздухе водяной пар достигнет насыщения.
f - Относительная влажность воздуха - влажноcть воздуха, измеренная на высоте 2 м над землей.
Te - Эффективная температура - температура, которую ощущает одетый по сезону человек в тени. Характеристика душности погоды. При расчете учитывается влияние влажности воздуха и скорости ветра на теплоощущения человека.
Tes - Эффективная температура на солнце - температура, которую ощущает человек, с поправкой на солнечный нагрев. Характеристика знойности погоды. Зависит от высоты солнца над горизонтом, облачности и скорости ветра. Ночью, в пасмурную погоду, а также при ветре 12 м/с и более поправка равна нулю.
P - Атмосферное давление - приведенное к уровню моря атмосферное давление.
Po - Атмосферное давление - измеренное на уровне метеостанции атмосферное давление.
Tmin - Минимальная температура - минимум температуры воздуха на высоте 2 м над землей.
Tmax - Максимальная температура - максимум температуры воздуха на высоте 2 м над землей.
R - Количество осадков - Количество выпавших осадков за период времени, мм. При наведении курсора мыши на число - период времени, за который выпало указанное количество осадков.
R24 - Количество осадков - Количество выпавших осадков за 24 часа, мм.
S - Снежный покров - Высота снежного покрова, см. При наведении курсора мыши на число - состояние снежного покрова и степень покрытия местности в баллах.